Overview Statistics Trail Chart Weather Telemetry Raw packets
 

This is the latest recevied weather packets stored in our database for station/object KB4JHU-15. If no packets are shown the sender has not sent any weather packets the latest 10 day(s).

<< 7 8 9 10 11 12 13 >>
Time Temp. Humidity Pressure Rain* Wind** Luminosity Snow
1788224060 28.33° C 64% - 0 mm - - -
1788222259 31.11° C 56% - 0 mm - - -
1788220458 32.22° C 51% - 0 mm - - -
1788218658 31.67° C 100% - 0 mm - - -
1788216856 31.67° C 54% - 0 mm - - -
1788215068 31.67° C 53% - 0 mm - - -
1788213254 32.22° C 49% - 0 mm - - -
1788211453 33.89° C 45% - 0 mm - - -
1788209652 35° C 39% - 0 mm - - -
1788207851 34.44° C 43% - 0 mm - - -
1788206050 33.89° C 46% - 0 mm - - -
1788204249 33.33° C 44% - 0 mm - - -
1788202448 32.22° C 48% - 0 mm - - -
1788200647 32.22° C 49% - 0 mm - - -
1788198846 32.22° C 50% - 0 mm - - -
1788197045 31.11° C 56% - 0 mm - - -
1788195244 31.67° C 52% - 0 mm - - -
1788193443 31.67° C 54% - 0 mm - - -
1788191642 31.11° C 57% - 0 mm - - -
1788189841 30.56° C 60% - 0 mm - - -
1788188040 29.44° C 64% - 0 mm - - -
1788186245 28.33° C 68% - 0 mm - - -
1788184438 28.33° C 69% - 0 mm - - -
1788182637 26.11° C 79% - 0 mm - - -
1788180836 23.33° C 92% - 0 mm - - -

* Rain latest hour (hover to see other rain measurements)
** Current wind speed in m/s (hover to see current wind gust speed)